This is the latest recevied weather packets stored in our database for station/object F6BIJ-13. If no packets are shown the sender has not sent any weather packets the latest 1 day(s).
| Time | Temp. | Humidity | Pressure | Rain* | Wind** | Luminosity | Snow |
|---|---|---|---|---|---|---|---|
| 1777970557 | 12.78° C | 96% | 1011.5 hPa | 2.03 mm | 0 m/s | - | - |
| 1777970197 | 13.33° C | 96% | 1011.4 hPa | 2.54 mm | 0 m/s | - | - |
| 1777969837 | 11.67° C | 96% | 1011.4 hPa | 3.05 mm | 0 m/s | - | - |
| 1777969477 | 12.78° C | 96% | 1011.3 hPa | 2.79 mm | 0 m/s | - | - |
| 1777969117 | 12.22° C | 96% | 1011.5 hPa | 2.54 mm | 0 m/s | - | - |
| 1777966957 | 13.33° C | 97% | 1011.3 hPa | 0 mm | 0 m/s | - | - |
| 1777966596 | 13.89° C | 97% | 1011.3 hPa | 0 mm | 0 m/s | - | - |
| 1777964437 | 12.22° C | 98% | 1011.3 hPa | 0 mm | 0 m/s | - | - |
| 1777964077 | 12.22° C | 98% | 1011.3 hPa | 0 mm | 0 m/s | - | - |
| 1777963717 | 12.22° C | 97% | 1011.3 hPa | 0 mm | 0 m/s | - | - |
| 1777963356 | 11.67° C | 98% | 1011.2 hPa | 0 mm | 0 m/s | - | - |
| 1777962997 | 11.67° C | 97% | 1011.1 hPa | 0 mm | 0 m/s | - | - |
| 1777962637 | 12.78° C | 97% | 1011.2 hPa | 0 mm | 0 m/s | - | - |
| 1777962277 | 12.78° C | 98% | 1011.2 hPa | 0 mm | 0 m/s | - | - |
| 1777961917 | 11.67° C | 98% | 1011.2 hPa | 0 mm | 0 m/s | - | - |
| 1777961557 | 12.22° C | 98% | 1011.1 hPa | 0 mm | 0 m/s | - | - |
| 1777961196 | 11.67° C | 97% | 1011.1 hPa | 0 mm | 0 m/s | - | - |
| 1777960836 | 11.67° C | 98% | 1011 hPa | 0 mm | 0 m/s | - | - |
| 1777960477 | 12.22° C | 97% | 1010.8 hPa | 0 mm | 0 m/s | - | - |
| 1777960116 | 12.22° C | 97% | 1011 hPa | 0 mm | 0 m/s | - | - |
| 1777959757 | 11.11° C | 97% | 1010.9 hPa | 0 mm | 0 m/s | - | - |
| 1777959396 | 11.67° C | 97% | 1010.9 hPa | 0 mm | 0 m/s | - | - |
| 1777959037 | 11.67° C | 97% | 1010.9 hPa | 0 mm | 0 m/s | - | - |
| 1777958677 | 11.67° C | 97% | 1010.9 hPa | 0 mm | 0 m/s | - | - |
| 1777958317 | 11.11° C | 98% | 1010.7 hPa | 0 mm | 0 m/s | - | - |
* Rain latest 24 hours (hover to see other rain measurements)
** Current wind speed in m/s (hover to see current wind gust speed)